Regional Weather Roundup
Issued by NWS

Home | Current Version | Previous Version | Graphics & Text | Print | Product List | Glossary On
Versions: 1 2 3 4 5 6 7 8 9 10 11 12 13 14 15 16 17 18 19 20 21 22 23 24 25 26 27 28 29 30 31 32 33 34 35 36 37 38 39 40 41 42 43 44 45 46 47 48 49 50
654
ASUS43 KTOP 201308
RWRKS

WEATHER ROUNDUP FOR KANSAS
NATIONAL WEATHER SERVICE GOODLAND KS
800 AM CDT THU JUL 20 2017

NOTE:  "FAIR" INDICATES FEW OR NO CLOUDS BELOW 12,000 FEET WITH NO
SIGNIFICANT WEATHER AND/OR OBSTRUCTIONS TO VISIBILITY.

KSZ001>006-013>018-027>032-041>047-201400-
NORTHWEST KANSAS

CITY           SKY/WX    TMP DP  RH WIND       PRES   REMARKS
GOODLAND       SUNNY     68  60  75 S5        30.06R
HAYS           SUNNY     80  65  59 S9        30.02S
HILL CITY      CLOUDY    79  63  57 S7        30.01R
RUSSELL        SUNNY     80  65  59 S12       30.01S
$$

KSZ061>065-074>080-084>089-201400-
SOUTHWEST KANSAS

CITY           SKY/WX    TMP DP  RH WIND       PRES   REMARKS
DODGE CITY     SUNNY     77  63  61 S14       30.08R
ELKHART          N/A     74  51  44 SW12        N/A
GARDEN CITY    SUNNY     74  61  63 S9        30.06F
LIBERAL        SUNNY     75  62  64 S13       30.11R
PRATT          SUNNY     76  64  65 SW12      30.06S
$$

KSZ066>073-081>083-090>101-201400-
SOUTHEAST KANSAS

CITY           SKY/WX    TMP DP  RH WIND       PRES   REMARKS
CHANUTE        SUNNY     82  72  71 MISG      30.08S
COFFEYVILLE    SUNNY     79  74  84 S7        30.09R
HUTCHINSON     SUNNY     82  69  64 S8        30.04F
MEDICINE LODGE   N/A     79  67  66 SE6       30.05S
NEWTON         SUNNY     82  69  64 S15       30.06S
PARSONS        SUNNY     80  73  79 S8        30.09S
WICHITA INTL   MOSUNNY   80  71  74 S12       30.06R
WICHITA JABRA  SUNNY     80  70  71 S9        30.06S
WICHITA MCCONL SUNNY     80  69  68 SW13      30.06S
WINFIELD       SUNNY     79  71  76 S9        30.08S
$$

KSZ007>012-019>026-033>040-048>060-102>105-201400-
NORTHEAST KANSAS

CITY           SKY/WX    TMP DP  RH WIND       PRES   REMARKS
CONCORDIA      SUNNY     81  68  64 S14       29.99S
EMPORIA        SUNNY     78  71  79 S10       30.04F
LAWRENCE       SUNNY     81  73  76 SE3       30.03R
MANHATTAN      SUNNY     83  71  67 SW10      30.01S
MARYSVILLE     SUNNY     81  70  69 S8        30.00S
OLATHE IND     SUNNY     79  73  82 S8        30.05S
OLATHE EXE     SUNNY     78  73  84 S8        30.05S
SALINA         SUNNY     85  68  56 S18       30.00F
TOPEKA BILLARD SUNNY     81  73  76 SW8       30.02S
TOPEKA FORBES  SUNNY     81  73  76 SW10      30.02F
$$




USA.gov is the U.S. government's official web portal to all federal, state and local government web resources and services.